Location: Bartshausen
(51.8454°N, 9.8167°E)
Time: 09:22:10
(UTC+00:00)

Cosmos 2278 Rocket - Pass Details

Date: 08 November 2025
Orbit: 841 x 843 km, 71.0° (Epoch: 11 December)

Event Time Altitude Azimuth Distance (km) Brightness Sun altitude
Exits shadow 03:29:57 27° 348° (NNW) 1,567 3.5 -27.5°
Maximum altitude 03:32:52 53° 53° (NE) 1,026 2.8 -27.1°
Drops below altitude 10° 03:38:23 10° 130° (SE) 2,458 5.1 -26.2°
Sets 03:40:53 0° 135° (SE) 3,390 5.9 -25.9°
